Home   Weather   Bowling Green   Past weeks

Flag for USA Past Weather in Bowling Green, Kentucky, USA — Yesterday and Last 2 Weeks

Now
15 °F

Clear.


Feels Like: 15 °F
Forecast: 17 / 37 °F
Wind: No wind

Location: Glasgow Municipal Airport

Current Time: Dec 10, 2016 at 4:56:14 am

Latest Report: Dec 10, 2016 at 4:15 am


Visibility: 10 mi

Pressure: 30.57 "Hg

Humidity: 100%

Dew Point: 15 °F

Location of Bowling GreenLocation

Past Weather in Bowling Green — Graph

°F

Bowling Green Temperature Yesterday

Maximum temperature yesterday: 32 °F (at 1:55 pm)
Minimum temperature yesterday: 17 °F (at 11:55 pm)
Average temperature yesterday: 26 °F

High & Low Weather Summary for the Past Weeks

 TemperatureHumidityPressure
High67 °F (Nov 29, 12:55 pm)100% (Nov 25, 3:15 am)30.61 "Hg (Nov 25, 3:15 am)
Low15 °F (Dec 10, 2:15 am)39% (Dec 7, 3:55 pm)29.42 "Hg (Nov 28, 6:15 pm)
Average41 °F77%30.13 "Hg
* Reported Nov 25 3:15 am — Dec 10 3:35 am, Bowling Green, Weather by CustomWeather, © 2016

Note: Actual official high and low records may vary slightly from our data, if they occured in-between our weather recording intervals... More about our weather records

Advertising

Bowling Green Weather History for the Previous 24 Hours

Scroll right to see more
 ConditionsComfort  
Time TempWeatherWind HumidityBarometerVisibility
3:35 am
Sat, Dec 10
16 °FClear.No wind100%30.57 "Hg10 mi
3:15 am16 °FClear.No wind100%30.57 "Hg10 mi
2:55 am17 °FClear.No wind100%30.58 "Hg10 mi
2:35 am16 °FClear.No wind100%30.58 "Hg10 mi
2:15 am15 °FClear.No wind95%30.58 "Hg10 mi
1:55 am16 °FClear.No wind94%30.58 "Hg10 mi
1:35 am17 °FClear.No wind93%30.58 "Hg10 mi
1:15 am16 °FClear.No wind91%30.58 "Hg10 mi
12:55 am17 °FClear.No wind93%30.58 "Hg10 mi
12:35 am17 °FClear.No wind93%30.58 "Hg10 mi
12:15 am17 °FClear.No wind90%30.58 "Hg10 mi
11:55 pm
Fri, Dec 9
17 °FClear.No wind91%30.57 "Hg10 mi
11:15 pm18 °FClear.No wind89%30.58 "Hg10 mi
10:55 pm18 °FClear.No wind88%30.58 "Hg10 mi
10:35 pm18 °FClear.No wind86%30.58 "Hg10 mi
10:15 pm19 °FClear.No wind86%30.58 "Hg10 mi
9:55 pm19 °FClear.No wind85%30.58 "Hg10 mi
9:35 pm21 °FClear.No wind80%30.58 "Hg10 mi
9:15 pm21 °FClear.No wind83%30.57 "Hg10 mi
8:55 pm22 °FClear.No wind80%30.56 "Hg10 mi
8:35 pm22 °FClear.3 mph81%30.56 "Hg10 mi
8:15 pm22 °FClear.3 mph78%30.56 "Hg10 mi
7:55 pm23 °FClear.No wind75%30.56 "Hg10 mi
7:35 pm24 °FClear.3 mph74%30.56 "Hg10 mi
7:15 pm24 °FClear.3 mph74%30.56 "Hg10 mi
6:55 pm25 °FClear.6 mph74%30.56 "Hg10 mi
6:35 pm25 °FClear.5 mph73%30.54 "Hg10 mi
6:15 pm26 °FClear.6 mph73%30.54 "Hg10 mi
5:55 pm26 °FClear.6 mph70%30.54 "Hg10 mi
5:35 pm28 °FClear.3 mph64%30.56 "Hg10 mi
5:15 pm28 °FClear.3 mph67%30.56 "Hg10 mi
4:55 pm28 °FClear.No wind66%30.55 "Hg10 mi
4:15 pm30 °FClear.5 mph59%30.54 "Hg10 mi
3:55 pm31 °FClear.5 mph55%30.54 "Hg10 mi
3:35 pm31 °FClear.7 mph54%30.54 "Hg10 mi
3:15 pm32 °FSunny.3 mph53%30.54 "Hg10 mi
2:55 pm32 °FSunny.7 mph52%30.54 "Hg10 mi
2:35 pm32 °FSunny.7 mph54%30.54 "Hg10 mi
2:15 pm32 °FScattered clouds.3 mph53%30.53 "Hg10 mi
1:55 pm32 °FScattered clouds.7 mph53%30.54 "Hg10 mi
1:15 pm32 °FScattered clouds.6 mph55%30.54 "Hg10 mi
12:55 pm32 °FScattered clouds.7 mph52%30.56 "Hg10 mi
12:35 pm31 °FScattered clouds.5 mph56%30.56 "Hg10 mi
12:15 pm29 °FScattered clouds.5 mph58%30.56 "Hg10 mi
11:55 am30 °FOvercast.3 mph56%30.56 "Hg10 mi
11:35 am28 °FPartly sunny.No wind61%30.57 "Hg10 mi
11:15 am27 °FPartly sunny.No wind61%30.58 "Hg10 mi
10:55 am29 °FOvercast.5 mph60%30.59 "Hg10 mi
10:35 am27 °FOvercast.6 mph64%30.60 "Hg10 mi
10:15 am26 °FOvercast.No wind64%30.60 "Hg10 mi
9:55 am26 °FOvercast.No wind66%30.60 "Hg10 mi
9:15 am26 °FOvercast.No wind66%30.61 "Hg10 mi
8:55 am25 °FOvercast.No wind67%30.60 "Hg10 mi
8:35 am25 °FOvercast.No wind67%30.59 "Hg10 mi
8:15 am25 °FOvercast.6 mph68%30.59 "Hg10 mi
7:55 am24 °FOvercast.5 mph68%30.58 "Hg10 mi
7:35 am24 °FOvercast.5 mph68%30.58 "Hg10 mi
7:15 am24 °FOvercast.6 mph67%30.58 "Hg10 mi
6:55 am24 °FOvercast.6 mph69%30.57 "Hg10 mi
6:35 am24 °FOvercast.7 mph68%30.56 "Hg10 mi
6:15 am24 °FOvercast.6 mph68%30.56 "Hg10 mi
5:55 am24 °FOvercast.6 mph68%30.56 "Hg10 mi
5:35 am24 °FOvercast.6 mph68%30.56 "Hg10 mi
5:15 am24 °FOvercast.6 mph70%30.55 "Hg10 mi
4:55 am24 °FOvercast.6 mph71%30.54 "Hg10 mi
4:35 am24 °FOvercast.6 mph68%30.54 "Hg10 mi
4:15 am25 °FOvercast.6 mph69%30.54 "Hg10 mi
Weather by CustomWeather, © 2016

See weather overviewHow to use our weather pages